owner,sensor,date,latitude,longitude,vertical_datum,sea_water_practical_salinity,qcFlag 
ENP,ioos.station.NOAA.NDBC:LMRF1:1,2015-12-01T04:00:00Z,25.5560,-81.1690,1.5,19.24,1111122 
ENP,ioos.station.NOAA.NDBC:LMRF1:1,2015-12-01T05:00:00Z,25.5560,-81.1690,1.5,18.7,1111122 
ENP,ioos.station.NOAA.NDBC:LMRF1:1,2015-12-01T06:00:00Z,25.5560,-81.1690,1.5,18.42,1111122 
ENP,ioos.station.NOAA.NDBC:LMRF1:1,2015-12-01T07:00:00Z,25.5560,-81.1690,1.5,18.49,1111122 
ENP,ioos.station.NOAA.NDBC:LMRF1:1,2015-12-01T08:00:00Z,25.5560,-81.1690,1.5,19.93,1111122 
ENP,ioos.station.NOAA.NDBC:LMRF1:1,2015-12-01T09:00:00Z,25.5560,-81.1690,1.5,25.21,1111122 
ENP,ioos.station.NOAA.NDBC:LMRF1:1,2015-12-01T10:00:00Z,25.5560,-81.1690,1.5,26.98,1111122 
ENP,ioos.station.NOAA.NDBC:LMRF1:1,2015-12-01T11:00:00Z,25.5560,-81.1690,1.5,28.41,1111122 
ENP,ioos.station.NOAA.NDBC:LMRF1:1,2015-12-01T12:00:00Z,25.5560,-81.1690,1.5,28.62,1111122 
ENP,ioos.station.NOAA.NDBC:LMRF1:1,2015-12-01T13:00:00Z,25.5560,-81.1690,1.5,25.85,1111122 
ENP,ioos.station.NOAA.NDBC:LMRF1:1,2015-12-01T14:00:00Z,25.5560,-81.1690,1.5,23.04,1111122 
ENP,ioos.station.NOAA.NDBC:LMRF1:1,2015-12-01T15:00:00Z,25.5560,-81.1690,1.5,21.79,1111122 
ENP,ioos.station.NOAA.NDBC:LMRF1:1,2015-12-01T16:00:00Z,25.5560,-81.1690,1.5,20.89,1111122 
ENP,ioos.station.NOAA.NDBC:LMRF1:1,2015-12-01T17:00:00Z,25.5560,-81.1690,1.5,19.86,1111122 
ENP,ioos.station.NOAA.NDBC:LMRF1:1,2015-12-01T18:00:00Z,25.5560,-81.1690,1.5,18.15,1111122 
ENP,ioos.station.NOAA.NDBC:LMRF1:1,2015-12-01T19:00:00Z,25.5560,-81.1690,1.5,17.21,1111122 
ENP,ioos.station.NOAA.NDBC:LMRF1:1,2015-12-01T20:00:00Z,25.5560,-81.1690,1.5,17.0,1111122 
ENP,ioos.station.NOAA.NDBC:LMRF1:1,2015-12-01T21:00:00Z,25.5560,-81.1690,1.5,17.07,1111122 
ENP,ioos.station.NOAA.NDBC:LMRF1:1,2015-12-01T22:00:00Z,25.5560,-81.1690,1.5,19.04,1111122 
ENP,ioos.station.NOAA.NDBC:LMRF1:1,2015-12-01T23:00:00Z,25.5560,-81.1690,1.5,20.82,1111122 
ENP,ioos.station.NOAA.NDBC:LMRF1:1,2015-12-02T00:00:00Z,25.5560,-81.1690,1.5,24.79,1111122 
ENP,ioos.station.NOAA.NDBC:LMRF1:1,2015-12-02T01:00:00Z,25.5560,-81.1690,1.5,26.34,1111122 
ENP,ioos.station.NOAA.NDBC:LMRF1:1,2015-12-02T02:00:00Z,25.5560,-81.1690,1.5,26.77,1111122 
ENP,ioos.station.NOAA.NDBC:LMRF1:1,2015-12-02T04:00:00Z,25.5560,-81.1690,1.5,19.99,1111122 
ENP,ioos.station.NOAA.NDBC:LMRF1:1,2015-12-02T05:00:00Z,25.5560,-81.1690,1.5,19.24,1111122 
ENP,ioos.station.NOAA.NDBC:LMRF1:1,2015-12-02T06:00:00Z,25.5560,-81.1690,1.5,18.9,1111122 
ENP,ioos.station.NOAA.NDBC:LMRF1:1,2015-12-02T07:00:00Z,25.5560,-81.1690,1.5,18.36,1111122 
ENP,ioos.station.NOAA.NDBC:LMRF1:1,2015-12-02T08:00:00Z,25.5560,-81.1690,1.5,18.29,1111122 
ENP,ioos.station.NOAA.NDBC:LMRF1:1,2015-12-02T09:00:00Z,25.5560,-81.1690,1.5,18.83,1111122 
ENP,ioos.station.NOAA.NDBC:LMRF1:1,2015-12-02T10:00:00Z,25.5560,-81.1690,1.5,22.41,1111122 
ENP,ioos.station.NOAA.NDBC:LMRF1:1,2015-12-02T11:00:00Z,25.5560,-81.1690,1.5,24.72,1111122 
ENP,ioos.station.NOAA.NDBC:LMRF1:1,2015-12-02T12:00:00Z,25.5560,-81.1690,1.5,26.77,1111122 
ENP,ioos.station.NOAA.NDBC:LMRF1:1,2015-12-02T13:00:00Z,25.5560,-81.1690,1.5,27.62,1111122 
ENP,ioos.station.NOAA.NDBC:LMRF1:1,2015-12-02T14:00:00Z,25.5560,-81.1690,1.5,23.53,1111122 
ENP,ioos.station.NOAA.NDBC:LMRF1:1,2015-12-02T15:00:00Z,25.5560,-81.1690,1.5,21.79,1111122 
ENP,ioos.station.NOAA.NDBC:LMRF1:1,2015-12-02T16:00:00Z,25.5560,-81.1690,1.5,20.34,1111122 
ENP,ioos.station.NOAA.NDBC:LMRF1:1,2015-12-02T17:00:00Z,25.5560,-81.1690,1.5,19.65,1111122 
ENP,ioos.station.NOAA.NDBC:LMRF1:1,2015-12-02T18:00:00Z,25.5560,-81.1690,1.5,18.97,1111122 
ENP,ioos.station.NOAA.NDBC:LMRF1:1,2015-12-02T19:00:00Z,25.5560,-81.1690,1.5,17.61,1111122 
ENP,ioos.station.NOAA.NDBC:LMRF1:1,2015-12-02T20:00:00Z,25.5560,-81.1690,1.5,17.21,1111122 
ENP,ioos.station.NOAA.NDBC:LMRF1:1,2015-12-02T21:00:00Z,25.5560,-81.1690,1.5,17.21,1111122 
ENP,ioos.station.NOAA.NDBC:LMRF1:1,2015-12-02T22:00:00Z,25.5560,-81.1690,1.5,18.09,1111122 
ENP,ioos.station.NOAA.NDBC:LMRF1:1,2015-12-02T23:00:00Z,25.5560,-81.1690,1.5,19.79,1111122 
ENP,ioos.station.NOAA.NDBC:LMRF1:1,2015-12-03T00:00:00Z,25.5560,-81.1690,1.5,22.69,1111122 
ENP,ioos.station.NOAA.NDBC:LMRF1:1,2015-12-03T01:00:00Z,25.5560,-81.1690,1.5,25.99,1111122 
ENP,ioos.station.NOAA.NDBC:LMRF1:1,2015-12-03T02:00:00Z,25.5560,-81.1690,1.5,27.05,1111122 
ENP,ioos.station.NOAA.NDBC:LMRF1:1,2015-12-03T04:00:00Z,25.5560,-81.1690,1.5,22.76,1111122 
ENP,ioos.station.NOAA.NDBC:LMRF1:1,2015-12-03T05:00:00Z,25.5560,-81.1690,1.5,20.61,1111122 
ENP,ioos.station.NOAA.NDBC:LMRF1:1,2015-12-03T06:00:00Z,25.5560,-81.1690,1.5,19.58,1111122 
ENP,ioos.station.NOAA.NDBC:LMRF1:1,2015-12-03T07:00:00Z,25.5560,-81.1690,1.5,18.97,1111122 
ENP,ioos.station.NOAA.NDBC:LMRF1:1,2015-12-03T08:00:00Z,25.5560,-81.1690,1.5,18.42,1111122 
ENP,ioos.station.NOAA.NDBC:LMRF1:1,2015-12-03T09:00:00Z,25.5560,-81.1690,1.5,18.15,1111122 
ENP,ioos.station.NOAA.NDBC:LMRF1:1,2015-12-03T10:00:00Z,25.5560,-81.1690,1.5,18.22,1111122 
ENP,ioos.station.NOAA.NDBC:LMRF1:1,2015-12-03T11:00:00Z,25.5560,-81.1690,1.5,18.97,1111122 
ENP,ioos.station.NOAA.NDBC:LMRF1:1,2015-12-03T12:00:00Z,25.5560,-81.1690,1.5,22.69,1111122 
ENP,ioos.station.NOAA.NDBC:LMRF1:1,2015-12-03T13:00:00Z,25.5560,-81.1690,1.5,24.23,1111122 
ENP,ioos.station.NOAA.NDBC:LMRF1:1,2015-12-03T14:00:00Z,25.5560,-81.1690,1.5,25.07,1111122 
ENP,ioos.station.NOAA.NDBC:LMRF1:1,2015-12-03T15:00:00Z,25.5560,-81.1690,1.5,24.16,1111122 
ENP,ioos.station.NOAA.NDBC:LMRF1:1,2015-12-03T16:00:00Z,25.5560,-81.1690,1.5,21.44,1111122 
ENP,ioos.station.NOAA.NDBC:LMRF1:1,2015-12-03T17:00:00Z,25.5560,-81.1690,1.5,19.38,1111122 
ENP,ioos.station.NOAA.NDBC:LMRF1:1,2015-12-03T18:00:00Z,25.5560,-81.1690,1.5,18.7,1111122 
ENP,ioos.station.NOAA.NDBC:LMRF1:1,2015-12-03T19:00:00Z,25.5560,-81.1690,1.5,18.29,1111122 
ENP,ioos.station.NOAA.NDBC:LMRF1:1,2015-12-03T20:00:00Z,25.5560,-81.1690,1.5,17.14,1111122 
ENP,ioos.station.NOAA.NDBC:LMRF1:1,2015-12-03T21:00:00Z,25.5560,-81.1690,1.5,16.67,1111122 
ENP,ioos.station.NOAA.NDBC:LMRF1:1,2015-12-03T22:00:00Z,25.5560,-81.1690,1.5,16.4,1111122 
ENP,ioos.station.NOAA.NDBC:LMRF1:1,2015-12-03T23:00:00Z,25.5560,-81.1690,1.5,16.67,1111122 
ENP,ioos.station.NOAA.NDBC:LMRF1:1,2015-12-04T00:00:00Z,25.5560,-81.1690,1.5,18.42,1111122 
ENP,ioos.station.NOAA.NDBC:LMRF1:1,2015-12-04T01:00:00Z,25.5560,-81.1690,1.5,20.89,1111122 
ENP,ioos.station.NOAA.NDBC:LMRF1:1,2015-12-04T02:00:00Z,25.5560,-81.1690,1.5,24.65,1111122 
ENP,ioos.station.NOAA.NDBC:LMRF1:1,2015-12-04T04:00:00Z,25.5560,-81.1690,1.5,23.39,1111122 
ENP,ioos.station.NOAA.NDBC:LMRF1:1,2015-12-04T05:00:00Z,25.5560,-81.1690,1.5,20.34,1111122 
ENP,ioos.station.NOAA.NDBC:LMRF1:1,2015-12-04T06:00:00Z,25.5560,-81.1690,1.5,18.15,1111122 
ENP,ioos.station.NOAA.NDBC:LMRF1:1,2015-12-04T07:00:00Z,25.5560,-81.1690,1.5,17.75,1111122 
ENP,ioos.station.NOAA.NDBC:LMRF1:1,2015-12-04T08:00:00Z,25.5560,-81.1690,1.5,17.48,1111122 
ENP,ioos.station.NOAA.NDBC:LMRF1:1,2015-12-04T09:00:00Z,25.5560,-81.1690,1.5,16.6,1111122 
ENP,ioos.station.NOAA.NDBC:LMRF1:1,2015-12-04T10:00:00Z,25.5560,-81.1690,1.5,15.73,1111122 
ENP,ioos.station.NOAA.NDBC:LMRF1:1,2015-12-04T11:00:00Z,25.5560,-81.1690,1.5,15.26,1111122 
ENP,ioos.station.NOAA.NDBC:LMRF1:1,2015-12-04T12:00:00Z,25.5560,-81.1690,1.5,14.46,1111122 
ENP,ioos.station.NOAA.NDBC:LMRF1:1,2015-12-04T13:00:00Z,25.5560,-81.1690,1.5,14.53,1111122 
ENP,ioos.station.NOAA.NDBC:LMRF1:1,2015-12-04T14:00:00Z,25.5560,-81.1690,1.5,14.66,1111122 
ENP,ioos.station.NOAA.NDBC:LMRF1:1,2015-12-04T15:00:00Z,25.5560,-81.1690,1.5,14.86,1111122 
ENP,ioos.station.NOAA.NDBC:LMRF1:1,2015-12-04T16:00:00Z,25.5560,-81.1690,1.5,14.53,1111122 
ENP,ioos.station.NOAA.NDBC:LMRF1:1,2015-12-04T22:00:00Z,25.5560,-81.1690,1.5,11.84,1111122 
ENP,ioos.station.NOAA.NDBC:LMRF1:1,2015-12-05T04:00:00Z,25.5560,-81.1690,1.5,17.75,1111122 
ENP,ioos.station.NOAA.NDBC:LMRF1:1,2015-12-05T10:00:00Z,25.5560,-81.1690,1.5,11.71,1111122 
ENP,ioos.station.NOAA.NDBC:LMRF1:1,2015-12-05T16:00:00Z,25.5560,-81.1690,1.5,10.81,1111122 
ENP,ioos.station.NOAA.NDBC:LMRF1:1,2015-12-05T22:00:00Z,25.5560,-81.1690,1.5,9.27,1111122 
ENP,ioos.station.NOAA.NDBC:LMRF1:1,2015-12-06T04:00:00Z,25.5560,-81.1690,1.5,12.95,1111122 
ENP,ioos.station.NOAA.NDBC:LMRF1:1,2015-12-06T09:00:00Z,25.5560,-81.1690,1.5,9.78,1111122 
ENP,ioos.station.NOAA.NDBC:LMRF1:1,2015-12-06T14:00:00Z,25.5560,-81.1690,1.5,8.58,1111122 
ENP,ioos.station.NOAA.NDBC:LMRF1:1,2015-12-06T15:00:00Z,25.5560,-81.1690,1.5,8.51,1111122 
ENP,ioos.station.NOAA.NDBC:LMRF1:1,2015-12-06T16:00:00Z,25.5560,-81.1690,1.5,8.58,1111122 
ENP,ioos.station.NOAA.NDBC:LMRF1:1,2015-12-06T17:00:00Z,25.5560,-81.1690,1.5,8.89,1111122 
ENP,ioos.station.NOAA.NDBC:LMRF1:1,2015-12-06T18:00:00Z,25.5560,-81.1690,1.5,9.02,1111122 
ENP,ioos.station.NOAA.NDBC:LMRF1:1,2015-12-06T19:00:00Z,25.5560,-81.1690,1.5,8.77,1111122 
ENP,ioos.station.NOAA.NDBC:LMRF1:1,2015-12-06T20:00:00Z,25.5560,-81.1690,1.5,8.7,1111122 
ENP,ioos.station.NOAA.NDBC:LMRF1:1,2015-12-06T21:00:00Z,25.5560,-81.1690,1.5,8.58,1111122 
ENP,ioos.station.NOAA.NDBC:LMRF1:1,2015-12-06T22:00:00Z,25.5560,-81.1690,1.5,8.14,1111122 
ENP,ioos.station.NOAA.NDBC:LMRF1:1,2015-12-06T23:00:00Z,25.5560,-81.1690,1.5,8.04,1111122 
ENP,ioos.station.NOAA.NDBC:LMRF1:1,2015-12-07T00:00:00Z,25.5560,-81.1690,1.5,8.02,1111122 
ENP,ioos.station.NOAA.NDBC:LMRF1:1,2015-12-07T01:00:00Z,25.5560,-81.1690,1.5,7.89,1111122 
ENP,ioos.station.NOAA.NDBC:LMRF1:1,2015-12-07T02:00:00Z,25.5560,-81.1690,1.5,7.91,1111122 
ENP,ioos.station.NOAA.NDBC:LMRF1:1,2015-12-07T04:00:00Z,25.5560,-81.1690,1.5,13.87,1111122 
ENP,ioos.station.NOAA.NDBC:LMRF1:1,2015-12-07T05:00:00Z,25.5560,-81.1690,1.5,17.21,1111122 
ENP,ioos.station.NOAA.NDBC:LMRF1:1,2015-12-07T06:00:00Z,25.5560,-81.1690,1.5,18.83,1111122 
ENP,ioos.station.NOAA.NDBC:LMRF1:1,2015-12-07T07:00:00Z,25.5560,-81.1690,1.5,13.47,1111122 
ENP,ioos.station.NOAA.NDBC:LMRF1:1,2015-12-07T08:00:00Z,25.5560,-81.1690,1.5,11.71,1111122 
ENP,ioos.station.NOAA.NDBC:LMRF1:1,2015-12-07T09:00:00Z,25.5560,-81.1690,1.5,10.16,1111122 
ENP,ioos.station.NOAA.NDBC:LMRF1:1,2015-12-07T10:00:00Z,25.5560,-81.1690,1.5,9.91,1111122 
ENP,ioos.station.NOAA.NDBC:LMRF1:1,2015-12-07T11:00:00Z,25.5560,-81.1690,1.5,9.46,1111122 
ENP,ioos.station.NOAA.NDBC:LMRF1:1,2015-12-07T12:00:00Z,25.5560,-81.1690,1.5,9.02,1111122 
ENP,ioos.station.NOAA.NDBC:LMRF1:1,2015-12-07T13:00:00Z,25.5560,-81.1690,1.5,8.64,1111122 
ENP,ioos.station.NOAA.NDBC:LMRF1:1,2015-12-07T14:00:00Z,25.5560,-81.1690,1.5,8.51,1111122 
ENP,ioos.station.NOAA.NDBC:LMRF1:1,2015-12-07T15:00:00Z,25.5560,-81.1690,1.5,8.58,1111122 
ENP,ioos.station.NOAA.NDBC:LMRF1:1,2015-12-07T16:00:00Z,25.5560,-81.1690,1.5,9.4,1111122 
ENP,ioos.station.NOAA.NDBC:LMRF1:1,2015-12-07T18:00:00Z,25.5560,-81.1690,1.5,17.95,1111122 
ENP,ioos.station.NOAA.NDBC:LMRF1:1,2015-12-07T19:00:00Z,25.5560,-81.1690,1.5,20.06,1111122 
ENP,ioos.station.NOAA.NDBC:LMRF1:1,2015-12-07T20:00:00Z,25.5560,-81.1690,1.5,13.67,1111122 
ENP,ioos.station.NOAA.NDBC:LMRF1:1,2015-12-07T21:00:00Z,25.5560,-81.1690,1.5,12.56,1111122 
ENP,ioos.station.NOAA.NDBC:LMRF1:1,2015-12-07T22:00:00Z,25.5560,-81.1690,1.5,11.0,1111122 
ENP,ioos.station.NOAA.NDBC:LMRF1:1,2015-12-07T23:00:00Z,25.5560,-81.1690,1.5,10.55,1111122 
ENP,ioos.station.NOAA.NDBC:LMRF1:1,2015-12-08T00:00:00Z,25.5560,-81.1690,1.5,10.04,1111122 
ENP,ioos.station.NOAA.NDBC:LMRF1:1,2015-12-08T01:00:00Z,25.5560,-81.1690,1.5,9.91,1111122 
ENP,ioos.station.NOAA.NDBC:LMRF1:1,2015-12-08T02:00:00Z,25.5560,-81.1690,1.5,9.91,1111122 
ENP,ioos.station.NOAA.NDBC:LMRF1:1,2015-12-08T03:00:00Z,25.5560,-81.1690,1.5,11.52,1111122 
ENP,ioos.station.NOAA.NDBC:LMRF1:1,2015-12-08T04:00:00Z,25.5560,-81.1690,1.5,15.53,1111122 
ENP,ioos.station.NOAA.NDBC:LMRF1:1,2015-12-08T05:00:00Z,25.5560,-81.1690,1.5,20.54,1111122 
ENP,ioos.station.NOAA.NDBC:LMRF1:1,2015-12-08T06:00:00Z,25.5560,-81.1690,1.5,23.04,1111122 
ENP,ioos.station.NOAA.NDBC:LMRF1:1,2015-12-08T07:00:00Z,25.5560,-81.1690,1.5,19.38,1111122 
ENP,ioos.station.NOAA.NDBC:LMRF1:1,2015-12-08T09:00:00Z,25.5560,-81.1690,1.5,13.28,1111122 
ENP,ioos.station.NOAA.NDBC:LMRF1:1,2015-12-08T10:00:00Z,25.5560,-81.1690,1.5,12.88,1111122 
ENP,ioos.station.NOAA.NDBC:LMRF1:1,2015-12-08T11:00:00Z,25.5560,-81.1690,1.5,11.97,1111122 
ENP,ioos.station.NOAA.NDBC:LMRF1:1,2015-12-08T12:00:00Z,25.5560,-81.1690,1.5,11.0,1111122 
ENP,ioos.station.NOAA.NDBC:LMRF1:1,2015-12-08T13:00:00Z,25.5560,-81.1690,1.5,10.1,1111122 
ENP,ioos.station.NOAA.NDBC:LMRF1:1,2015-12-08T14:00:00Z,25.5560,-81.1690,1.5,9.46,1111122 
ENP,ioos.station.NOAA.NDBC:LMRF1:1,2015-12-08T15:00:00Z,25.5560,-81.1690,1.5,9.34,1111122 
ENP,ioos.station.NOAA.NDBC:LMRF1:1,2015-12-08T16:00:00Z,25.5560,-81.1690,1.5,9.34,1111122 
ENP,ioos.station.NOAA.NDBC:LMRF1:1,2015-12-08T17:00:00Z,25.5560,-81.1690,1.5,10.29,1111122 
ENP,ioos.station.NOAA.NDBC:LMRF1:1,2015-12-08T18:00:00Z,25.5560,-81.1690,1.5,12.23,1111122 
ENP,ioos.station.NOAA.NDBC:LMRF1:1,2015-12-08T19:00:00Z,25.5560,-81.1690,1.5,16.2,1111122 
ENP,ioos.station.NOAA.NDBC:LMRF1:1,2015-12-08T20:00:00Z,25.5560,-81.1690,1.5,17.68,1111122 
ENP,ioos.station.NOAA.NDBC:LMRF1:1,2015-12-08T21:00:00Z,25.5560,-81.1690,1.5,13.41,1111122 
ENP,ioos.station.NOAA.NDBC:LMRF1:1,2015-12-08T22:00:00Z,25.5560,-81.1690,1.5,12.04,1111122 
ENP,ioos.station.NOAA.NDBC:LMRF1:1,2015-12-08T23:00:00Z,25.5560,-81.1690,1.5,11.13,1111122 
ENP,ioos.station.NOAA.NDBC:LMRF1:1,2015-12-09T00:00:00Z,25.5560,-81.1690,1.5,10.36,1111122 
ENP,ioos.station.NOAA.NDBC:LMRF1:1,2015-12-09T01:00:00Z,25.5560,-81.1690,1.5,9.97,1111122 
ENP,ioos.station.NOAA.NDBC:LMRF1:1,2015-12-09T02:00:00Z,25.5560,-81.1690,1.5,10.04,1111122 
ENP,ioos.station.NOAA.NDBC:LMRF1:1,2015-12-09T03:00:00Z,25.5560,-81.1690,1.5,11.06,1111122 
ENP,ioos.station.NOAA.NDBC:LMRF1:1,2015-12-09T04:00:00Z,25.5560,-81.1690,1.5,16.67,1111122 
ENP,ioos.station.NOAA.NDBC:LMRF1:1,2015-12-09T05:00:00Z,25.5560,-81.1690,1.5,23.11,1111122 
ENP,ioos.station.NOAA.NDBC:LMRF1:1,2015-12-09T06:00:00Z,25.5560,-81.1690,1.5,25.85,1111122 
ENP,ioos.station.NOAA.NDBC:LMRF1:1,2015-12-09T07:00:00Z,25.5560,-81.1690,1.5,26.91,1111122 
ENP,ioos.station.NOAA.NDBC:LMRF1:1,2015-12-09T08:00:00Z,25.5560,-81.1690,1.5,25.21,1111122 
ENP,ioos.station.NOAA.NDBC:LMRF1:1,2015-12-09T09:00:00Z,25.5560,-81.1690,1.5,20.68,1111122 
ENP,ioos.station.NOAA.NDBC:LMRF1:1,2015-12-09T10:00:00Z,25.5560,-81.1690,1.5,17.68,1111122 
ENP,ioos.station.NOAA.NDBC:LMRF1:1,2015-12-09T11:00:00Z,25.5560,-81.1690,1.5,16.2,1111122 
ENP,ioos.station.NOAA.NDBC:LMRF1:1,2015-12-09T12:00:00Z,25.5560,-81.1690,1.5,15.06,1111122 
ENP,ioos.station.NOAA.NDBC:LMRF1:1,2015-12-09T13:00:00Z,25.5560,-81.1690,1.5,13.28,1111122 
ENP,ioos.station.NOAA.NDBC:LMRF1:1,2015-12-09T14:00:00Z,25.5560,-81.1690,1.5,12.3,1111122 
ENP,ioos.station.NOAA.NDBC:LMRF1:1,2015-12-09T15:00:00Z,25.5560,-81.1690,1.5,12.04,1111122 
ENP,ioos.station.NOAA.NDBC:LMRF1:1,2015-12-09T16:00:00Z,25.5560,-81.1690,1.5,12.75,1111122 
ENP,ioos.station.NOAA.NDBC:LMRF1:1,2015-12-09T17:00:00Z,25.5560,-81.1690,1.5,15.26,1111122 
ENP,ioos.station.NOAA.NDBC:LMRF1:1,2015-12-09T18:00:00Z,25.5560,-81.1690,1.5,22.06,1111122 
ENP,ioos.station.NOAA.NDBC:LMRF1:1,2015-12-09T19:00:00Z,25.5560,-81.1690,1.5,25.63,1111122 
ENP,ioos.station.NOAA.NDBC:LMRF1:1,2015-12-09T20:00:00Z,25.5560,-81.1690,1.5,26.7,1111122 
ENP,ioos.station.NOAA.NDBC:LMRF1:1,2015-12-10T10:00:00Z,25.5560,-81.1690,1.5,25.35,1111122 
ENP,ioos.station.NOAA.NDBC:LMRF1:1,2015-12-10T11:00:00Z,25.5560,-81.1690,1.5,24.65,1111122 
ENP,ioos.station.NOAA.NDBC:LMRF1:1,2015-12-10T12:00:00Z,25.5560,-81.1690,1.5,22.69,1111122 
ENP,ioos.station.NOAA.NDBC:LMRF1:1,2015-12-10T13:00:00Z,25.5560,-81.1690,1.5,20.68,1111122 
ENP,ioos.station.NOAA.NDBC:LMRF1:1,2015-12-10T14:00:00Z,25.5560,-81.1690,1.5,18.83,1111122 
ENP,ioos.station.NOAA.NDBC:LMRF1:1,2015-12-10T16:00:00Z,25.5560,-81.1690,1.5,17.27,1111122 
ENP,ioos.station.NOAA.NDBC:LMRF1:1,2015-12-10T17:00:00Z,25.5560,-81.1690,1.5,18.29,1111122 
ENP,ioos.station.NOAA.NDBC:LMRF1:1,2015-12-10T18:00:00Z,25.5560,-81.1690,1.5,21.37,1111122 
ENP,ioos.station.NOAA.NDBC:LMRF1:1,2015-12-10T20:00:00Z,25.5560,-81.1690,1.5,27.41,1111122 
ENP,ioos.station.NOAA.NDBC:LMRF1:1,2015-12-10T21:00:00Z,25.5560,-81.1690,1.5,28.05,1111122 
ENP,ioos.station.NOAA.NDBC:LMRF1:1,2015-12-10T23:00:00Z,25.5560,-81.1690,1.5,22.62,1111122 
ENP,ioos.station.NOAA.NDBC:LMRF1:1,2015-12-11T00:00:00Z,25.5560,-81.1690,1.5,20.06,1111122 
ENP,ioos.station.NOAA.NDBC:LMRF1:1,2015-12-11T02:00:00Z,25.5560,-81.1690,1.5,19.24,1111122 
ENP,ioos.station.NOAA.NDBC:LMRF1:1,2015-12-11T04:00:00Z,25.5560,-81.1690,1.5,20.41,1111122 
ENP,ioos.station.NOAA.NDBC:LMRF1:1,2015-12-11T05:00:00Z,25.5560,-81.1690,1.5,24.23,1111122 
ENP,ioos.station.NOAA.NDBC:LMRF1:1,2015-12-11T06:00:00Z,25.5560,-81.1690,1.5,27.69,1111122 
ENP,ioos.station.NOAA.NDBC:LMRF1:1,2015-12-11T07:00:00Z,25.5560,-81.1690,1.5,28.77,1111122 
ENP,ioos.station.NOAA.NDBC:LMRF1:1,2015-12-11T09:00:00Z,25.5560,-81.1690,1.5,29.41,1111122 
ENP,ioos.station.NOAA.NDBC:LMRF1:1,2015-12-11T10:00:00Z,25.5560,-81.1690,1.5,26.77,1111122 
ENP,ioos.station.NOAA.NDBC:LMRF1:1,2015-12-11T11:00:00Z,25.5560,-81.1690,1.5,25.28,1111122 
ENP,ioos.station.NOAA.NDBC:LMRF1:1,2015-12-11T12:00:00Z,25.5560,-81.1690,1.5,24.44,1111122 
ENP,ioos.station.NOAA.NDBC:LMRF1:1,2015-12-11T14:00:00Z,25.5560,-81.1690,1.5,21.16,1111122 
ENP,ioos.station.NOAA.NDBC:LMRF1:1,2015-12-11T15:00:00Z,25.5560,-81.1690,1.5,19.38,1111122 
ENP,ioos.station.NOAA.NDBC:LMRF1:1,2015-12-11T17:00:00Z,25.5560,-81.1690,1.5,18.63,1111122 
ENP,ioos.station.NOAA.NDBC:LMRF1:1,2015-12-11T19:00:00Z,25.5560,-81.1690,1.5,22.76,1111122 
ENP,ioos.station.NOAA.NDBC:LMRF1:1,2015-12-11T20:00:00Z,25.5560,-81.1690,1.5,25.92,1111122 
ENP,ioos.station.NOAA.NDBC:LMRF1:1,2015-12-11T21:00:00Z,25.5560,-81.1690,1.5,27.55,1111122 
ENP,ioos.station.NOAA.NDBC:LMRF1:1,2015-12-11T22:00:00Z,25.5560,-81.1690,1.5,27.84,1111122 
ENP,ioos.station.NOAA.NDBC:LMRF1:1,2015-12-11T23:00:00Z,25.5560,-81.1690,1.5,24.3,1111122 
ENP,ioos.station.NOAA.NDBC:LMRF1:1,2015-12-12T00:00:00Z,25.5560,-81.1690,1.5,21.58,1111122 
ENP,ioos.station.NOAA.NDBC:LMRF1:1,2015-12-12T01:00:00Z,25.5560,-81.1690,1.5,21.03,1111122 
ENP,ioos.station.NOAA.NDBC:LMRF1:1,2015-12-12T04:00:00Z,25.5560,-81.1690,1.5,20.27,1111122 
ENP,ioos.station.NOAA.NDBC:LMRF1:1,2015-12-12T05:00:00Z,25.5560,-81.1690,1.5,21.99,1111122 
ENP,ioos.station.NOAA.NDBC:LMRF1:1,2015-12-12T07:00:00Z,25.5560,-81.1690,1.5,27.84,1111122 
ENP,ioos.station.NOAA.NDBC:LMRF1:1,2015-12-12T09:00:00Z,25.5560,-81.1690,1.5,28.84,1111122 
ENP,ioos.station.NOAA.NDBC:LMRF1:1,2015-12-12T10:00:00Z,25.5560,-81.1690,1.5,27.34,1111122 
ENP,ioos.station.NOAA.NDBC:LMRF1:1,2015-12-12T11:00:00Z,25.5560,-81.1690,1.5,24.72,1111122 
ENP,ioos.station.NOAA.NDBC:LMRF1:1,2015-12-12T13:00:00Z,25.5560,-81.1690,1.5,23.67,1111122 
ENP,ioos.station.NOAA.NDBC:LMRF1:1,2015-12-12T14:00:00Z,25.5560,-81.1690,1.5,21.86,1111122 
ENP,ioos.station.NOAA.NDBC:LMRF1:1,2015-12-12T15:00:00Z,25.5560,-81.1690,1.5,20.13,1111122 
ENP,ioos.station.NOAA.NDBC:LMRF1:1,2015-12-12T16:00:00Z,25.5560,-81.1690,1.5,19.17,1111122 
ENP,ioos.station.NOAA.NDBC:LMRF1:1,2015-12-12T17:00:00Z,25.5560,-81.1690,1.5,18.7,1111122 
ENP,ioos.station.NOAA.NDBC:LMRF1:1,2015-12-12T18:00:00Z,25.5560,-81.1690,1.5,18.49,1111122 
ENP,ioos.station.NOAA.NDBC:LMRF1:1,2015-12-12T21:00:00Z,25.5560,-81.1690,1.5,23.95,1111122 
ENP,ioos.station.NOAA.NDBC:LMRF1:1,2015-12-12T23:00:00Z,25.5560,-81.1690,1.5,21.99,1111122 
ENP,ioos.station.NOAA.NDBC:LMRF1:1,2015-12-13T00:00:00Z,25.5560,-81.1690,1.5,21.1,1111122 
ENP,ioos.station.NOAA.NDBC:LMRF1:1,2015-12-13T01:00:00Z,25.5560,-81.1690,1.5,19.24,1111122 
ENP,ioos.station.NOAA.NDBC:LMRF1:1,2015-12-13T04:00:00Z,25.5560,-81.1690,1.5,17.81,1111122 
ENP,ioos.station.NOAA.NDBC:LMRF1:1,2015-12-13T05:00:00Z,25.5560,-81.1690,1.5,17.88,1111122 
ENP,ioos.station.NOAA.NDBC:LMRF1:1,2015-12-13T06:00:00Z,25.5560,-81.1690,1.5,19.11,1111122 
ENP,ioos.station.NOAA.NDBC:LMRF1:1,2015-12-13T07:00:00Z,25.5560,-81.1690,1.5,23.11,1111122 
ENP,ioos.station.NOAA.NDBC:LMRF1:1,2015-12-13T09:00:00Z,25.5560,-81.1690,1.5,27.05,1111122 
ENP,ioos.station.NOAA.NDBC:LMRF1:1,2015-12-13T11:00:00Z,25.5560,-81.1690,1.5,23.74,1111122 
ENP,ioos.station.NOAA.NDBC:LMRF1:1,2015-12-13T12:00:00Z,25.5560,-81.1690,1.5,20.61,1111122 
ENP,ioos.station.NOAA.NDBC:LMRF1:1,2015-12-13T13:00:00Z,25.5560,-81.1690,1.5,20.82,1111122 
ENP,ioos.station.NOAA.NDBC:LMRF1:1,2015-12-13T14:00:00Z,25.5560,-81.1690,1.5,20.06,1111122 
ENP,ioos.station.NOAA.NDBC:LMRF1:1,2015-12-13T16:00:00Z,25.5560,-81.1690,1.5,17.95,1111122 
ENP,ioos.station.NOAA.NDBC:LMRF1:1,2015-12-13T17:00:00Z,25.5560,-81.1690,1.5,17.14,1111122 
ENP,ioos.station.NOAA.NDBC:LMRF1:1,2015-12-13T18:00:00Z,25.5560,-81.1690,1.5,16.87,1111122 
ENP,ioos.station.NOAA.NDBC:LMRF1:1,2015-12-13T20:00:00Z,25.5560,-81.1690,1.5,19.24,1111122 
ENP,ioos.station.NOAA.NDBC:LMRF1:1,2015-12-13T21:00:00Z,25.5560,-81.1690,1.5,22.06,1111122 
ENP,ioos.station.NOAA.NDBC:LMRF1:1,2015-12-13T22:00:00Z,25.5560,-81.1690,1.5,24.86,1111122 
ENP,ioos.station.NOAA.NDBC:LMRF1:1,2015-12-13T23:00:00Z,25.5560,-81.1690,1.5,25.49,1111122 
ENP,ioos.station.NOAA.NDBC:LMRF1:1,2015-12-14T00:00:00Z,25.5560,-81.1690,1.5,21.58,1111122 
ENP,ioos.station.NOAA.NDBC:LMRF1:1,2015-12-14T01:00:00Z,25.5560,-81.1690,1.5,20.54,1111122 
ENP,ioos.station.NOAA.NDBC:LMRF1:1,2015-12-14T12:00:00Z,25.5560,-81.1690,1.5,26.91,1111122 
ENP,ioos.station.NOAA.NDBC:LMRF1:1,2015-12-14T13:00:00Z,25.5560,-81.1690,1.5,24.93,1111122 
ENP,ioos.station.NOAA.NDBC:LMRF1:1,2015-12-14T14:00:00Z,25.5560,-81.1690,1.5,24.44,1111122 
ENP,ioos.station.NOAA.NDBC:LMRF1:1,2015-12-14T15:00:00Z,25.5560,-81.1690,1.5,22.97,1111122 
ENP,ioos.station.NOAA.NDBC:LMRF1:1,2015-12-14T16:00:00Z,25.5560,-81.1690,1.5,20.82,1111122 
ENP,ioos.station.NOAA.NDBC:LMRF1:1,2015-12-14T17:00:00Z,25.5560,-81.1690,1.5,19.72,1111122 
ENP,ioos.station.NOAA.NDBC:LMRF1:1,2015-12-14T19:00:00Z,25.5560,-81.1690,1.5,19.58,1111122 
ENP,ioos.station.NOAA.NDBC:LMRF1:1,2015-12-14T21:00:00Z,25.5560,-81.1690,1.5,24.65,1111122 
ENP,ioos.station.NOAA.NDBC:LMRF1:1,2015-12-14T22:00:00Z,25.5560,-81.1690,1.5,27.12,1111122 
ENP,ioos.station.NOAA.NDBC:LMRF1:1,2015-12-14T23:00:00Z,25.5560,-81.1690,1.5,27.77,1111122 
ENP,ioos.station.NOAA.NDBC:LMRF1:1,2015-12-15T01:00:00Z,25.5560,-81.1690,1.5,24.86,1111122 
ENP,ioos.station.NOAA.NDBC:LMRF1:1,2015-12-15T02:00:00Z,25.5560,-81.1690,1.5,22.55,1111122 
ENP,ioos.station.NOAA.NDBC:LMRF1:1,2015-12-15T04:00:00Z,25.5560,-81.1690,1.5,21.99,1111122 
ENP,ioos.station.NOAA.NDBC:LMRF1:1,2015-12-15T05:00:00Z,25.5560,-81.1690,1.5,21.44,1111122 
ENP,ioos.station.NOAA.NDBC:LMRF1:1,2015-12-15T06:00:00Z,25.5560,-81.1690,1.5,21.58,1111122 
ENP,ioos.station.NOAA.NDBC:LMRF1:1,2015-12-15T07:00:00Z,25.5560,-81.1690,1.5,22.76,1111122 
ENP,ioos.station.NOAA.NDBC:LMRF1:1,2015-12-15T08:00:00Z,25.5560,-81.1690,1.5,25.28,1111122 
ENP,ioos.station.NOAA.NDBC:LMRF1:1,2015-12-15T09:00:00Z,25.5560,-81.1690,1.5,27.84,1111122 
ENP,ioos.station.NOAA.NDBC:LMRF1:1,2015-12-15T10:00:00Z,25.5560,-81.1690,1.5,28.62,1111122 
ENP,ioos.station.NOAA.NDBC:LMRF1:1,2015-12-15T11:00:00Z,25.5560,-81.1690,1.5,28.84,1111122 
ENP,ioos.station.NOAA.NDBC:LMRF1:1,2015-12-15T12:00:00Z,25.5560,-81.1690,1.5,27.91,1111122 
ENP,ioos.station.NOAA.NDBC:LMRF1:1,2015-12-15T13:00:00Z,25.5560,-81.1690,1.5,25.92,1111122 
ENP,ioos.station.NOAA.NDBC:LMRF1:1,2015-12-15T14:00:00Z,25.5560,-81.1690,1.5,25.21,1111122 
ENP,ioos.station.NOAA.NDBC:LMRF1:1,2015-12-15T15:00:00Z,25.5560,-81.1690,1.5,24.51,1111122 
ENP,ioos.station.NOAA.NDBC:LMRF1:1,2015-12-15T17:00:00Z,25.5560,-81.1690,1.5,21.1,1111122 
ENP,ioos.station.NOAA.NDBC:LMRF1:1,2015-12-15T18:00:00Z,25.5560,-81.1690,1.5,20.27,1111122 
ENP,ioos.station.NOAA.NDBC:LMRF1:1,2015-12-15T20:00:00Z,25.5560,-81.1690,1.5,20.75,1111122 
ENP,ioos.station.NOAA.NDBC:LMRF1:1,2015-12-15T21:00:00Z,25.5560,-81.1690,1.5,23.46,1111122 
ENP,ioos.station.NOAA.NDBC:LMRF1:1,2015-12-15T23:00:00Z,25.5560,-81.1690,1.5,27.2,1111122 
ENP,ioos.station.NOAA.NDBC:LMRF1:1,2015-12-16T01:00:00Z,25.5560,-81.1690,1.5,26.63,1111122 